Time,TemperatureF,DewpointF,PressureIn,WindDirection,WindDirectionDegrees,WindSpeedMPH,WindSpeedGustMPH,Humidity,HourlyPrecipIn,Conditions,Clouds,dailyrainin,SoftwareType,DateUTC
2013-07-30 00:08:00,77.6,71.0,30.10,East,86,0.0,-999.0,80,-99.99,,,0.03,weatherlink.com 1.10,2013-07-30 04:08:00,
2013-07-30 00:23:00,77.5,71.0,30.09,East,86,0.0,-999.0,80,-99.99,,,0.03,weatherlink.com 1.10,2013-07-30 04:23:00,
2013-07-30 00:38:00,77.5,71.0,30.10,East,86,0.0,-999.0,79,-99.99,,,0.03,weatherlink.com 1.10,2013-07-30 04:38:00,
2013-07-30 00:53:00,77.8,71.0,30.10,East,86,0.0,-999.0,79,-99.99,,,0.03,weatherlink.com 1.10,2013-07-30 04:53:00,
2013-07-30 01:08:00,77.8,71.0,30.09,East,86,0.0,-999.0,79,-99.99,,,0.03,weatherlink.com 1.10,2013-07-30 05:08:00,
2013-07-30 01:23:00,77.6,71.0,30.09,East,86,0.0,-999.0,79,-99.99,,,0.03,weatherlink.com 1.10,2013-07-30 05:23:00,
2013-07-30 01:38:00,77.4,70.0,30.08,East,86,0.0,-999.0,79,-99.99,,,0.03,weatherlink.com 1.10,2013-07-30 05:38:00,
2013-07-30 01:53:00,77.5,71.0,30.08,East,89,0.0,-999.0,80,-99.99,,,0.03,weatherlink.com 1.10,2013-07-30 05:53:00,
2013-07-30 02:08:00,77.4,71.0,30.08,East,89,0.0,-999.0,80,-99.99,,,0.03,weatherlink.com 1.10,2013-07-30 06:08:00,
2013-07-30 02:23:00,77.2,71.0,30.08,ENE,63,0.0,-999.0,81,-99.99,,,0.00,weatherlink.com 1.10,2013-07-30 06:23:00,
2013-07-30 02:38:00,77.1,71.0,30.08,ENE,63,0.0,-999.0,81,-99.99,,,0.00,weatherlink.com 1.10,2013-07-30 06:38:00,
2013-07-30 02:53:00,77.1,71.0,30.07,ENE,76,0.0,-999.0,81,-99.99,,,0.00,weatherlink.com 1.10,2013-07-30 06:53:00,
2013-07-30 03:08:00,76.7,71.0,30.07,ENE,76,0.0,-999.0,81,-99.99,,,0.00,weatherlink.com 1.10,2013-07-30 07:08:00,
2013-07-30 03:23:00,76.8,71.0,30.06,ENE,76,2.0,-999.0,81,-99.99,,,0.00,weatherlink.com 1.10,2013-07-30 07:23:00,
2013-07-30 03:38:00,77.2,71.0,30.06,ENE,71,0.0,-999.0,81,-99.99,,,0.00,weatherlink.com 1.10,2013-07-30 07:38:00,
2013-07-30 03:53:00,77.5,71.0,30.07,ENE,70,0.0,-999.0,81,-99.99,,,0.00,weatherlink.com 1.10,2013-07-30 07:53:00,
2013-07-30 04:08:00,77.3,71.0,30.06,ENE,71,0.0,-999.0,81,-99.99,,,0.00,weatherlink.com 1.10,2013-07-30 08:08:00,
2013-07-30 04:23:00,76.8,71.0,30.06,ENE,71,0.0,-999.0,81,-99.99,,,0.00,weatherlink.com 1.10,2013-07-30 08:23:00,
2013-07-30 04:38:00,76.5,71.0,30.06,ENE,71,0.0,-999.0,82,-99.99,,,0.00,weatherlink.com 1.10,2013-07-30 08:38:00,
2013-07-30 04:53:00,76.4,71.0,30.06,ENE,69,0.0,-999.0,82,-99.99,,,0.00,weatherlink.com 1.10,2013-07-30 08:53:00,
2013-07-30 05:08:00,76.3,70.0,30.06,ENE,66,0.0,-999.0,82,-99.99,,,0.00,weatherlink.com 1.10,2013-07-30 09:08:00,
2013-07-30 05:23:00,76.2,70.0,30.06,ENE,69,0.0,-999.0,82,-99.99,,,0.00,weatherlink.com 1.10,2013-07-30 09:23:00,
2013-07-30 05:38:00,76.0,70.0,30.06,ENE,69,0.0,-999.0,82,-99.99,,,0.00,weatherlink.com 1.10,2013-07-30 09:38:00,
2013-07-30 05:53:00,76.1,70.0,30.07,ENE,69,0.0,-999.0,82,-99.99,,,0.00,weatherlink.com 1.10,2013-07-30 09:53:00,
2013-07-30 06:08:00,76.2,70.0,30.07,ENE,76,1.0,-999.0,82,-99.99,,,0.00,weatherlink.com 1.10,2013-07-30 10:08:00,
2013-07-30 06:23:00,76.2,70.0,30.07,ENE,65,0.0,-999.0,82,-99.99,,,0.00,weatherlink.com 1.10,2013-07-30 10:23:00,
2013-07-30 06:38:00,76.6,71.0,30.08,ENE,66,4.0,-999.0,83,-99.99,,,0.00,weatherlink.com 1.10,2013-07-30 10:38:00,
2013-07-30 06:53:00,76.5,71.0,30.08,ENE,68,0.0,-999.0,82,-99.99,,,0.00,weatherlink.com 1.10,2013-07-30 10:53:00,
2013-07-30 07:08:00,76.6,71.0,30.08,ENE,67,1.0,-999.0,82,-99.99,,,0.00,weatherlink.com 1.10,2013-07-30 11:08:00,
2013-07-30 07:23:00,76.7,71.0,30.09,ENE,67,2.0,-999.0,82,-99.99,,,0.00,weatherlink.com 1.10,2013-07-30 11:23:00,
2013-07-30 07:38:00,76.9,71.0,30.09,ENE,67,1.0,-999.0,82,-99.99,,,0.00,weatherlink.com 1.10,2013-07-30 11:38:00,
2013-07-30 07:53:00,77.1,71.0,30.10,ENE,69,3.0,-999.0,82,-99.99,,,0.00,weatherlink.com 1.10,2013-07-30 11:53:00,
2013-07-30 08:09:00,77.7,72.0,30.10,ENE,67,3.0,-999.0,82,-99.99,,,0.00,weatherlink.com 1.10,2013-07-30 12:09:00,
2013-07-30 08:24:00,78.5,73.0,30.11,ENE,74,1.0,-999.0,82,-99.99,,,0.00,weatherlink.com 1.10,2013-07-30 12:24:00,
2013-07-30 08:39:00,79.6,73.0,30.10,ENE,71,4.0,-999.0,81,-99.99,,,0.00,weatherlink.com 1.10,2013-07-30 12:39:00,
2013-07-30 08:54:00,80.4,74.0,30.10,ENE,63,2.0,-999.0,80,-99.99,,,0.00,weatherlink.com 1.10,2013-07-30 12:54:00,
2013-07-30 09:09:00,80.9,74.0,30.11,ENE,64,3.0,-999.0,80,-99.99,,,0.00,weatherlink.com 1.10,2013-07-30 13:09:00,
2013-07-30 09:24:00,81.5,74.0,30.11,ENE,63,3.0,-999.0,79,-99.99,,,0.00,weatherlink.com 1.10,2013-07-30 13:24:00,
2013-07-30 09:39:00,82.1,75.0,30.11,ENE,62,0.0,-999.0,79,-99.99,,,0.00,weatherlink.com 1.10,2013-07-30 13:39:00,
2013-07-30 09:54:00,82.5,75.0,30.11,ENE,66,2.0,-999.0,78,-99.99,,,0.00,weatherlink.com 1.10,2013-07-30 13:54:00,
2013-07-30 10:09:00,82.9,75.0,30.11,ENE,66,2.0,-999.0,78,-99.99,,,0.00,weatherlink.com 1.10,2013-07-30 14:09:00,
2013-07-30 10:24:00,83.4,75.0,30.11,ENE,66,2.0,-999.0,76,-99.99,,,0.00,weatherlink.com 1.10,2013-07-30 14:24:00,
2013-07-30 10:39:00,83.9,75.0,30.12,ENE,66,2.0,-999.0,75,-99.99,,,0.00,weatherlink.com 1.10,2013-07-30 14:39:00,
2013-07-30 10:54:00,84.4,75.0,30.12,ENE,66,2.0,-999.0,74,-99.99,,,0.00,weatherlink.com 1.10,2013-07-30 14:54:00,
2013-07-30 11:09:00,84.9,75.0,30.12,ENE,63,1.0,-999.0,72,-99.99,,,0.00,weatherlink.com 1.10,2013-07-30 15:09:00,
2013-07-30 11:24:00,85.2,75.0,30.12,ENE,63,1.0,-999.0,72,-99.99,,,0.00,weatherlink.com 1.10,2013-07-30 15:24:00,
2013-07-30 11:39:00,85.3,76.0,30.12,North,355,3.0,-999.0,73,-99.99,,,0.00,weatherlink.com 1.10,2013-07-30 15:39:00,
2013-07-30 11:54:00,85.5,76.0,30.12,NNE,29,3.0,-999.0,72,-99.99,,,0.00,weatherlink.com 1.10,2013-07-30 15:54:00,
2013-07-30 12:09:00,85.5,75.0,30.11,NNE,19,0.0,-999.0,70,-99.99,,,0.00,weatherlink.com 1.10,2013-07-30 16:09:00,
2013-07-30 12:24:00,86.0,76.0,30.11,NNE,19,0.0,-999.0,71,-99.99,,,0.00,weatherlink.com 1.10,2013-07-30 16:24:00,
2013-07-30 12:39:00,86.4,75.0,30.11,NNE,22,0.0,-999.0,69,-99.99,,,0.00,weatherlink.com 1.10,2013-07-30 16:39:00,
2013-07-30 12:54:00,86.7,75.0,30.10,NNE,32,5.0,-999.0,68,-99.99,,,0.00,weatherlink.com 1.10,2013-07-30 16:54:00,
2013-07-30 13:09:00,87.2,75.0,30.09,ENE,57,1.0,-999.0,66,-99.99,,,0.00,weatherlink.com 1.10,2013-07-30 17:09:00,
2013-07-30 13:24:00,87.5,77.0,30.09,SSW,206,5.0,-999.0,71,-99.99,,,0.00,weatherlink.com 1.10,2013-07-30 17:24:00,
2013-07-30 13:39:00,86.6,76.0,30.08,SSW,213,0.0,-999.0,70,-99.99,,,0.00,weatherlink.com 1.10,2013-07-30 17:39:00,
2013-07-30 13:54:00,86.8,77.0,30.08,SW,220,2.0,-999.0,72,-99.99,,,0.00,weatherlink.com 1.10,2013-07-30 17:54:00,
2013-07-30 14:09:00,86.1,77.0,30.08,West,265,7.0,-999.0,73,-99.99,,,0.00,weatherlink.com 1.10,2013-07-30 18:09:00,
2013-07-30 14:24:00,86.1,77.0,30.07,West,275,7.0,-999.0,73,-99.99,,,0.00,weatherlink.com 1.10,2013-07-30 18:24:00,
2013-07-30 14:39:00,86.3,77.0,30.06,WNW,290,5.0,-999.0,73,-99.99,,,0.00,weatherlink.com 1.10,2013-07-30 18:39:00,
2013-07-30 14:54:00,86.4,76.0,30.06,WNW,288,9.0,-999.0,72,-99.99,,,0.00,weatherlink.com 1.10,2013-07-30 18:54:00,
2013-07-30 15:09:00,86.3,77.0,30.06,WNW,302,9.0,-999.0,74,-99.99,,,0.00,weatherlink.com 1.10,2013-07-30 19:09:00,
2013-07-30 15:24:00,86.3,77.0,30.05,WNW,290,10.0,-999.0,73,-99.99,,,0.00,weatherlink.com 1.10,2013-07-30 19:24:00,
2013-07-30 15:39:00,86.3,77.0,30.04,WNW,283,9.0,-999.0,73,-99.99,,,0.00,weatherlink.com 1.10,2013-07-30 19:39:00,
2013-07-30 15:54:00,86.7,77.0,30.04,WNW,296,13.0,-999.0,73,-99.99,,,0.00,weatherlink.com 1.10,2013-07-30 19:54:00,
2013-07-30 16:09:00,86.6,77.0,30.02,WNW,291,11.0,-999.0,73,-99.99,,,0.00,weatherlink.com 1.10,2013-07-30 20:09:00,
2013-07-30 16:24:00,86.5,77.0,30.02,WNW,302,9.0,-999.0,73,-99.99,,,0.00,weatherlink.com 1.10,2013-07-30 20:24:00,
2013-07-30 16:39:00,87.0,78.0,30.02,WNW,292,10.0,-999.0,74,-99.99,,,0.00,weatherlink.com 1.10,2013-07-30 20:39:00,
2013-07-30 16:54:00,87.0,77.0,30.02,WNW,286,9.0,-999.0,72,-99.99,,,0.00,weatherlink.com 1.10,2013-07-30 20:54:00,
2013-07-30 17:09:00,86.9,77.0,30.02,WNW,290,11.0,-999.0,73,-99.99,,,0.00,weatherlink.com 1.10,2013-07-30 21:09:00,
2013-07-30 17:24:00,87.3,78.0,30.02,West,277,10.0,-999.0,73,-99.99,,,0.00,weatherlink.com 1.10,2013-07-30 21:24:00,
2013-07-30 17:40:00,83.7,74.0,30.06,SSE,155,13.0,-999.0,73,-99.99,,,0.00,weatherlink.com 1.10,2013-07-30 21:40:00,
2013-07-30 17:55:00,76.5,70.0,30.07,SSW,198,2.0,-999.0,79,-99.99,,,0.07,weatherlink.com 1.10,2013-07-30 21:55:00,
2013-07-30 18:10:00,76.9,70.0,30.05,WSW,254,12.0,-999.0,80,-99.99,,,0.15,weatherlink.com 1.10,2013-07-30 22:10:00,
2013-07-30 18:25:00,76.8,70.0,30.04,WSW,244,4.0,-999.0,80,-99.99,,,0.22,weatherlink.com 1.10,2013-07-30 22:25:00,
2013-07-30 18:40:00,77.1,71.0,30.03,WSW,248,0.0,-999.0,80,-99.99,,,0.27,weatherlink.com 1.10,2013-07-30 22:40:00,
2013-07-30 18:55:00,77.6,71.0,30.05,NNE,13,2.0,-999.0,80,-99.99,,,0.32,weatherlink.com 1.10,2013-07-30 22:55:00,
2013-07-30 19:10:00,77.6,71.0,30.04,NNE,15,0.0,-999.0,80,-99.99,,,0.37,weatherlink.com 1.10,2013-07-30 23:10:00,
2013-07-30 19:25:00,77.4,71.0,30.03,NNE,14,0.0,-999.0,81,-99.99,,,0.41,weatherlink.com 1.10,2013-07-30 23:25:00,
2013-07-30 19:40:00,77.8,72.0,30.04,SW,219,0.0,-999.0,82,-99.99,,,0.44,weatherlink.com 1.10,2013-07-30 23:40:00,
2013-07-30 19:55:00,77.5,72.0,30.05,SW,219,1.0,-999.0,82,-99.99,,,0.48,weatherlink.com 1.10,2013-07-30 23:55:00,
2013-07-30 20:10:00,77.5,72.0,30.06,SW,219,0.0,-999.0,82,-99.99,,,0.51,weatherlink.com 1.10,2013-07-31 00:10:00,
2013-07-30 20:25:00,77.6,72.0,30.06,SW,219,0.0,-999.0,82,-99.99,,,0.53,weatherlink.com 1.10,2013-07-31 00:25:00,
2013-07-30 20:40:00,77.7,72.0,30.07,SW,219,0.0,-999.0,82,-99.99,,,0.55,weatherlink.com 1.10,2013-07-31 00:40:00,
2013-07-30 20:55:00,77.9,72.0,30.06,SW,219,0.0,-999.0,82,-99.99,,,0.57,weatherlink.com 1.10,2013-07-31 00:55:00,
2013-07-30 21:10:00,77.9,72.0,30.06,SW,219,0.0,-999.0,82,-99.99,,,0.59,weatherlink.com 1.10,2013-07-31 01:10:00,
2013-07-30 21:25:00,77.9,72.0,30.07,SW,219,0.0,-999.0,83,-99.99,,,0.61,weatherlink.com 1.10,2013-07-31 01:25:00,
2013-07-30 21:40:00,77.8,72.0,30.07,SW,219,0.0,-999.0,82,-99.99,,,0.63,weatherlink.com 1.10,2013-07-31 01:40:00,
2013-07-30 21:55:00,77.9,72.0,30.06,SW,219,2.0,-999.0,82,-99.99,,,0.65,weatherlink.com 1.10,2013-07-31 01:55:00,
2013-07-30 22:10:00,78.0,72.0,30.07,SW,219,0.0,-999.0,82,-99.99,,,0.66,weatherlink.com 1.10,2013-07-31 02:10:00,
2013-07-30 22:25:00,78.1,72.0,30.08,SW,219,0.0,-999.0,82,-99.99,,,0.68,weatherlink.com 1.10,2013-07-31 02:25:00,
2013-07-30 22:40:00,78.4,73.0,30.08,SW,219,0.0,-999.0,83,-99.99,,,0.70,weatherlink.com 1.10,2013-07-31 02:40:00,
2013-07-30 22:55:00,78.6,73.0,30.09,SW,219,0.0,-999.0,83,-99.99,,,0.71,weatherlink.com 1.10,2013-07-31 02:55:00,
2013-07-30 23:10:00,78.7,73.0,30.09,SW,219,0.0,-999.0,83,-99.99,,,0.72,weatherlink.com 1.10,2013-07-31 03:10:00,
2013-07-30 23:25:00,78.6,73.0,30.09,SW,219,0.0,-999.0,82,-99.99,,,0.74,weatherlink.com 1.10,2013-07-31 03:25:00,
2013-07-30 23:40:00,78.6,73.0,30.09,SW,219,0.0,-999.0,82,-99.99,,,0.75,weatherlink.com 1.10,2013-07-31 03:40:00,
2013-07-30 23:55:00,78.5,73.0,30.09,SW,219,0.0,-999.0,82,-99.99,,,0.76,weatherlink.com 1.10,2013-07-31 03:55:00,